Ithaca, NY

8:10 PM EDT on October 22, 2017 (GMT -0400)
Tompkins County

Weather History for KITH - June, 2014

Change the Weather History Date:

Saturday, June 7, 2014

  Actual Average Record
Temperature  
Mean Temperature 61 °F -  
Max Temperature 77 °F 71 °F 91 °F (1999)
Min Temperature 45 °F 51 °F 34 °F (1958)
Degree Days  
Heating Degree Days 4    
Growing Degree Days 11 (Base 50)    
Moisture  
Dew Point 50 °F    
Average Humidity 66    
Maximum Humidity 100    
Minimum Humidity 38    
Precipitation  
Precipitation 0.00 in - - ()
Sea Level Pressure  
Sea Level Pressure 30.03 in    
Wind  
Wind Speed 4 mph (North)    
Max Wind Speed 8 mph    
Max Gust Speed -    
Visibility 10 miles    
Events      
Averages and records for this station are not official NWS values.
T = Trace of Precipitation, MM = Missing Value Source: NWS Daily Summary

Daily Weather History Graph

Daily Weather History Graph

Search for Another Location

Airport or City:

Trip Planner

Search our weather history database for the weather conditions in past years. The results will help you decide how hot, cold, wet, or windy it might be!

Date:

Astronomy

Jun. 07, 2014 Rise Set
Actual Time 5:28 AM EDT 8:40 PM EDT
Civil Twilight 4:54 AM EDT 9:15 PM EDT
Nautical Twilight 4:10 AM EDT 9:59 PM EDT
Astronomical Twilight 3:16 AM EDT 10:53 PM EDT
Moon 2:49 PM EDT (6/7) 1:56 AM EDT (6/7)
Length of Visible Light 16h 20m
Length of Day
15h 11m
Waxing Gibbous, 67% of the Moon is Illuminated
Jun 7
Waxing Gibbous
Jun 13
Full
Jun 19
Last Quarter
Jun 27
New
Jul 5
First Quarter

Hourly Weather History & Observations

Time (EDT) Temp. Windchill Dew Point Humidity Pressure Visibility Wind Dir Wind Speed Gust Speed Precip Events Conditions
12:56 AM 48.9 °F - 47.8 °F 96% 30.04 in 10.0 mi ENE 4.6 mph - N/A   Clear
2:56 AM 47.8 °F - 47.8 °F 100% 30.04 in 10.0 mi Calm Calm - N/A   Mostly Cloudy
3:56 AM 48.9 °F - 48.9 °F 100% 30.04 in 10.0 mi East 3.5 mph - N/A   Overcast
4:56 AM 48.9 °F - 47.8 °F 96% 30.04 in 10.0 mi East 4.6 mph - N/A   Clear
5:56 AM 45.9 °F 43.6 °F 45.9 °F 100% 30.05 in 8.0 mi East 4.6 mph - N/A   Clear
6:30 AM 48.2 °F - 48.2 °F 100% 30.06 in 10.0 mi East 3.5 mph - N/A   Partly Cloudy
6:56 AM 52.0 °F - 50.0 °F 93% 30.06 in 10.0 mi Calm Calm - N/A   Partly Cloudy
7:56 AM 59.9 °F - 52.9 °F 78% 30.08 in 10.0 mi Calm Calm - N/A   Clear
8:56 AM 65.8 °F - 48.9 °F 54% 30.07 in 10.0 mi Calm Calm - N/A   Clear
9:56 AM 68.9 °F - 48.9 °F 49% 30.07 in 10.0 mi WNW 3.5 mph - N/A   Clear
10:56 AM 70.9 °F - 50.9 °F 49% 30.08 in 10.0 mi WNW 6.9 mph - N/A   Clear
11:56 AM 73.9 °F - 46.9 °F 38% 30.09 in 10.0 mi WNW 8.1 mph - N/A   Clear
12:56 PM 75.9 °F - 50.9 °F 41% 30.08 in 10.0 mi WNW 8.1 mph - N/A   Clear
2:56 PM 77.9 °F - 50.0 °F 38% 30.02 in 10.0 mi NNW 8.1 mph - N/A   Clear
3:56 PM 77.9 °F - 52.0 °F 40% 29.99 in 10.0 mi NW 6.9 mph - N/A   Clear
4:56 PM 77.9 °F - 50.9 °F 39% 29.99 in 10.0 mi WNW 8.1 mph - N/A   Clear
5:56 PM 77.9 °F - 52.0 °F 40% 29.98 in 10.0 mi NW 8.1 mph - N/A   Clear
6:56 PM 75.9 °F - 52.9 °F 45% 29.98 in 10.0 mi NNW 6.9 mph - N/A   Clear
7:56 PM 72.0 °F - 52.9 °F 51% 29.99 in 10.0 mi North 4.6 mph - N/A   Clear
8:56 PM 66.9 °F - 52.0 °F 59% 29.99 in 10.0 mi NE 4.6 mph - N/A   Clear
9:56 PM 61.0 °F - 50.9 °F 69% 30.00 in 10.0 mi ENE 4.6 mph - N/A   Clear
10:56 PM 59.9 °F - 52.0 °F 75% 29.99 in 10.0 mi ENE 4.6 mph - N/A   Clear
11:56 PM 57.9 °F - 50.9 °F 77% 30.00 in 10.0 mi East 3.5 mph - N/A   Clear